EW0784 Weather Reports


Display with metric or nautical units.
time (UTC)temp
F
wind
direction
speed
MPH
gust
MPH
rain 1hr
in
rain 24hr
in
rain mn
in
humidity
%
barometer
mb
20260905154611 69 86 2.0 7.0 0.00 0.00 0.00 97 1017.7
20260905153052 68 49 2.0 8.0 0.00 0.00 0.00 97 1017.6
20260905151559 68 104 0.0 4.0 0.00 0.00 0.00 97 1017.7
20260905150047 67 43 0.0 3.0 0.00 0.00 0.00 97 1017.8
20260905144546 67 103 0.0 0.0 0.00 0.00 0.00 97 1017.8
20260905143044 67 79 0.0 0.0 0.00 0.00 0.00 97 1017.7
20260905141544 66 353 0.0 0.0 0.00 0.00 0.00 97 1017.7
20260905140042 66 84 0.0 0.0 0.00 0.00 0.00 97 1017.6
20260905134540 66 84 0.0 0.0 0.00 0.00 0.00 97 1017.6
20260905133038 66 94 0.0 0.0 0.00 0.00 0.00 97 1017.3
20260905131534 66 283 0.0 0.0 0.00 0.00 0.00 97 1016.9
20260905130034 65 1 0.0 5.0 0.00 0.00 0.00 97 1016.3
20260905124532 65 73 1.0 6.0 0.00 0.00 0.00 97 1016.0
20260905123031 65 58 0.0 5.0 0.00 0.00 0.00 97 1016.2
20260905121531 65 352 0.0 0.0 0.00 0.00 0.00 97 1016.5
20260905120030 65 4 0.0 2.0 0.00 0.00 0.00 97 1016.5
20260905114529 65 39 0.0 0.0 0.00 0.00 0.00 97 1016.3
20260905113029 65 330 0.0 0.0 0.00 0.00 0.00 97 1016.1
20260905111527 66 43 0.0 0.0 0.00 0.00 0.00 97 1015.9
20260905110025 66 198 0.0 0.0 0.00 0.00 0.00 97 1015.9
20260905104525 66 125 0.0 0.0 0.00 0.00 0.00 97 1015.7
20260905103024 66 201 0.0 0.0 0.00 0.00 0.00 96 1016.0
20260905101528 66 84 0.0 0.0 0.00 0.00 0.00 96 1015.2
20260905100024 66 96 0.0 5.0 0.00 0.00 0.00 96 1015.1
20260905094521 66 67 0.0 5.0 0.00 0.00 0.00 96 1015.0
20260905093021 66 105 0.0 0.0 0.00 0.00 0.00 96 1014.9
20260905091520 66 132 0.0 6.0 0.00 0.00 0.00 95 1015.1
20260905090019 66 63 0.0 0.0 0.00 0.00 0.00 95 1015.5
20260905084518 66 44 0.0 4.0 0.00 0.00 0.00 95 1015.5
20260905083026 66 87 0.0 0.0 0.00 0.00 0.00 94 1015.6
20260905081522 66 75 1.0 4.0 0.00 0.00 0.00 94 1015.7
20260905080031 66 41 0.0 3.0 0.00 0.00 0.00 94 1015.8
20260905074516 66 89 1.0 6.0 0.00 0.00 0.00 94 1015.7
20260905073015 66 60 1.0 6.0 0.00 0.00 0.00 94 1015.7
20260905071515 66 37 0.0 4.0 0.00 0.00 0.00 94 1015.6
20260905070028 66 316 0.0 4.0 0.00 0.00 0.00 94 1015.7
20260905064513 66 117 0.0 0.0 0.00 0.00 0.00 94 1015.7
20260905063013 66 349 0.0 0.0 0.00 0.00 0.00 94 1015.6
20260905061512 66 27 0.0 0.0 0.00 0.00 0.00 94 1015.6
20260905060009 66 68 0.0 4.0 0.00 0.00 0.00 94 1015.4
20260905054517 66 328 0.0 3.0 0.00 0.00 0.00 95 1015.1
20260905053006 66 23 0.0 6.0 0.00 0.00 0.00 95 1015.0
20260905051503 65 285 0.0 0.0 0.00 0.00 0.00 94 1015.1
20260905044600 65 243 0.0 0.0 0.00 0.00 0.00 93 1015.0
20260905043058 66 301 0.0 0.0 0.00 0.00 0.00 92 1015.2
20260905041601 67 32 0.0 0.0 0.00 0.00 0.00 91 1015.2
20260905040055 67 126 0.0 5.0 0.00 0.00 0.00 90 1014.9
20260905034551 68 88 0.0 0.0 0.00 0.00 0.00 89 1015.0
20260905033053 68 77 0.0 1.0 0.00 0.00 0.00 88 1015.1
20260905031549 69 51 0.0 0.0 0.00 0.00 0.00 87 1015.1
20260905030047 70 46 0.0 0.0 0.00 0.00 0.00 86 1015.0
20260905024541 70 302 0.0 0.0 0.00 0.00 0.00 85 1014.9
20260905023039 71 86 0.0 6.0 0.00 0.00 0.00 83 1014.6
20260905021537 72 322 0.0 1.0 0.00 0.00 0.00 82 1014.5
20260905020036 73 80 0.0 0.0 0.00 0.00 0.00 81 1014.5
20260905014535 73 284 0.0 0.0 0.00 0.00 0.00 81 1014.3
20260905013033 74 360 0.0 0.0 0.00 0.00 0.00 79 1014.1
20260905011534 75 293 0.0 0.0 0.00 0.00 0.00 78 1013.7
20260905010028 76 316 0.0 2.0 0.00 0.00 0.00 76 1013.4
20260905004528 77 306 0.0 0.0 0.00 0.00 0.00 74 1013.4
20260905003026 79 4 0.0 2.0 0.00 0.00 0.00 71 1013.3
20260905001525 81 342 0.0 0.0 0.00 0.00 0.00 68 1013.1
20260905000023 83 60 0.0 0.0 0.00 0.00 0.00 66 1012.9
20260904234535 83 98 0.0 0.0 0.00 0.00 0.00 65 1012.9
20260904233021 83 349 0.0 9.0 0.00 0.00 0.00 66 1012.8
20260904231521 83 123 0.0 1.0 0.00 0.00 0.00 64 1012.7
20260904230019 83 27 0.0 6.0 0.00 0.00 0.00 65 1012.8
20260904224518 83 311 0.0 3.0 0.00 0.00 0.00 64 1012.7
20260904223019 83 302 0.0 2.0 0.00 0.00 0.00 64 1012.6
20260904221518 83 4 0.0 3.0 0.00 0.00 0.00 65 1012.4
20260904220017 84 136 0.0 2.0 0.00 0.00 0.00 64 1012.3
20260904214514 83 307 0.0 4.0 0.00 0.00 0.00 68 1012.1
20260904213013 82 76 0.0 3.0 0.00 0.00 0.00 68 1012.1
20260904211513 83 53 0.0 3.0 0.00 0.00 0.00 67 1012.3
20260904210010 82 293 0.0 3.0 0.00 0.00 0.00 68 1012.3
20260904204509 82 1 0.0 6.0 0.00 0.00 0.00 71 1012.3
20260904203011 82 295 0.0 3.0 0.00 0.00 0.00 75 1012.2
20260904201508 82 292 0.0 0.0 0.00 0.00 0.00 76 1012.2
20260904200006 82 11 0.0 0.0 0.00 0.00 0.00 76 1012.2
20260904194501 80 79 0.0 3.0 0.00 0.00 0.00 78 1012.3
20260904193105 80 358 0.0 5.0 0.00 0.00 0.00 78 1012.5
20260904191603 79 331 0.0 5.0 0.00 0.00 0.00 81 1012.4
20260904190056 78 18 0.0 6.0 0.00 0.00 0.00 80 1012.6
20260904184557 77 63 0.0 0.0 0.00 0.01 0.00 81 1012.6
20260904183049 75 7 0.0 0.0 0.00 0.01 0.00 85 1012.6
20260904181549 75 301 0.0 0.0 0.00 0.01 0.00 85 1012.8
20260904180046 75 3 0.0 0.0 0.00 0.01 0.00 84 1012.6
20260904174546 74 115 0.0 0.0 0.00 0.01 0.00 88 1012.6
20260904173043 73 327 0.0 0.0 0.00 0.01 0.00 89 1012.6
20260904171550 74 330 0.0 3.0 0.00 0.01 0.00 89 1012.3
20260904170043 74 295 0.0 0.0 0.00 0.01 0.00 89 1012.4
20260904164540 74 69 0.0 3.0 0.00 0.01 0.00 90 1012.3
20260904163042 74 282 0.0 0.0 0.00 0.01 0.00 90 1012.2
20260904161537 75 306 0.0 1.0 0.00 0.01 0.00 89 1012.0
20260904160047 76 71 0.0 5.0 0.00 0.01 0.00 89 1011.8